Flag for Canada Weather past 2 weeks in Surrey, British Columbia, Canada

Now
65 °F

Mild.


Feels Like: 65 °F
Forecast: 59 / 65 °F
Wind: 3 mph from Northwest

Location: P. Meadows Coastal Station

Current Time: Sep 17, 2014 at 9:34:12 PM

Latest Report: Sep 17, 2014 at 8:00 PM


Visibility: N/A

Pressure: 29.72 "Hg

Humidity: 83%

Dew point: 59 °F

Location of SurreyLocation

Historic Weather in Surrey — Graph

°F

Surrey temperature yesterday

Maximum temperature yesterday: 76 °F (at 1:00 PM)
Minimum temperature yesterday: 50 °F (at 6:00 AM)
Average temperature yesterday: 62 °F

Past Weeks' High & Low Weather Summary

 TemperatureHumidityPressure
High87 °F (Sep 15, 4:00 PM)100% (Sep 15, 7:00 AM)30.34 "Hg (Sep 15, 7:00 AM)
Low43 °F (Sep 12, 7:00 AM)17% (Sep 10, 5:00 PM)29.70 "Hg (Sep 17, 7:00 PM)
Average63 °F67%29.99 "Hg
* Reported Sep 2 8:00 PM — Sep 17 8:00 PM, Surrey, Weather by CustomWeather, © 2014

Note: Actual official high and low records may vary slightly from our data, if they occured in-between our weather recording intervals... More about our weather records

Advertising

Surrey weather history for previous 24 hours

 ConditionsComfort  
Time TempWeatherWind HumidityBarometerVisibility
8:00 PM
Sep 17
65 °FMild.3 mph83%29.72 "HgN/A
7:00 PM66 °FMild.5 mph78%29.70 "HgN/A
6:00 PM68 °FMild.No wind77%29.71 "HgN/A
5:00 PM69 °FMild.3 mph67%29.72 "HgN/A
4:00 PM70 °FMild.2 mph62%29.74 "HgN/A
3:00 PM70 °FMild.5 mph62%29.75 "HgN/A
2:00 PM68 °FMild.1 mph69%29.77 "HgN/A
1:00 PM68 °FMild.1 mph69%29.78 "HgN/A
12:00 PM67 °FMild.1 mph70%29.78 "HgN/A
11:00 AM65 °FMild.2 mph76%29.78 "HgN/A
10:00 AM61 °FCool.2 mph89%29.78 "HgN/A
9:00 AM61 °FCool.1 mph90%29.78 "HgN/A
8:00 AM59 °FCool.No wind93%29.80 "HgN/A
7:00 AM59 °FCool.1 mph89%29.79 "HgN/A
6:00 AM59 °FCool.1 mph87%29.80 "HgN/A
5:00 AM59 °FCool.2 mph88%29.81 "HgN/A
4:00 AM59 °FCool.1 mph89%29.82 "HgN/A
3:00 AM58 °FCool.No wind88%29.83 "HgN/A
2:00 AM60 °FCool.1 mph86%29.85 "HgN/A
1:00 AM60 °FCool.1 mph86%29.85 "HgN/A
12:00 AM59 °FCool.1 mph79%29.86 "HgN/A
11:00 PM
Sep 16
61 °FCool.1 mph81%29.86 "HgN/A
10:00 PM62 °FCool.2 mph74%29.86 "HgN/A
9:00 PM63 °FMild.2 mph71%29.86 "HgN/A
Weather by CustomWeather, © 2014

See weather overviewHow to use our weather pages